Regional Weather Roundup
Issued by NWS Albany, NY

Home | Current Version | Previous Version | Text Only | Print | Product List | Glossary On
Versions: 1 2 3 4 5 6 7 8 9 10 11 12 13 14 15 16 17 18 19 20 21 22 23 24 25 26 27 28 29 30 31 32 33 34 35 36 37 38 39 40 41 42 43 44 45 46 47 48 49 50
000
ASUS41 KALY 010810
RWRALY

NEW YORK STATE HOURLY WEATHER ROUNDUP
NATIONAL WEATHER SERVICE ALBANY NY
400 AM EDT SAT AUG 01 2015

NOTE: "FAIR" INDICATES FEW OR NO CLOUDS BELOW 12,000 FEET WITH NO
SIGNIFICANT WEATHER AND/OR NO OBSTRUCTIONS TO VISIBILITY.

NYZ032-033-038>043-046>054-057>066-NYZ062>081-010900-
EAST


CITY           SKY/WX    TMP DP  RH WIND       PRES   REMARKS
ALBANY         MOCLDY    65  58  78 CALM      29.75F
GLENS FALLS    PTCLDY    62  60  93 W5        29.74F
POUGHKEEPSIE   CLEAR     64  60  87 CALM      29.77F
NEWBURGH       CLEAR     72  59  64 CALM      29.80
MONTGOMERY     CLEAR     65  61  87 SW3       29.79F
WHITE PLAINS   PTCLDY    73  59  61 W3        29.79F
ISLIP          CLEAR     71  65  81 SW7       29.78S
NEW YORK CITY  PTCLDY    80  58  46 SW10      29.78F
CENTRAL PARK   MOCLDY    78  57  48 CALM      29.82F
$$

NYZ005>009-017-018-044>046-055-056-010900-
CENTRAL


CITY           SKY/WX    TMP DP  RH WIND       PRES   REMARKS
FULTON         MOCLDY    64  62  93 S3        29.76F FOG
SYRACUSE       PTCLDY    66  63  90 NW5       29.77S
ROME           CLOUDY    63  62  97 CALM      29.79S
ELMIRA         CLOUDY    67  63  87 SW5       29.80S
BINGHAMTON     CLOUDY    66  59  78 SW8       29.83R
MONTICELLO     PTCLDY    63  59  88 CALM      29.84S
$$

NYZ026>034-041>043-010900-
NORTH


CITY           SKY/WX    TMP DP  RH WIND       PRES   REMARKS
WATERTOWN      LGT RAIN  65  63  93 SW3       29.74S
FORT DRUM      NOT AVBL
MASSENA        CLOUDY    65  59  81 SW8       29.71R
SARANAC LAKE   CLOUDY    58  58 100 SW5       29.76R
PLATTSBURGH    CLOUDY    68  57  68 VRB5      29.69F
$$

NYZ001>004-010>016-019>021-010900-
WEST


CITY           SKY/WX    TMP DP  RH WIND       PRES   REMARKS
NIAGARA FALLS  MOCLDY    63  60  90 CALM      29.80R
BUFFALO        MOCLDY    66  58  75 SW6       29.80S
DUNKIRK        PTCLDY    64  61  90 NW5       29.83S
JAMESTOWN      MOCLDY    64  57  77 W9        29.88R
WELLSVILLE     PTCLDY    62  58  86 SW6       29.88S
ROCHESTER      CLEAR     63  61  93 SW6       29.79S
PENN YAN       LGT RAIN  68  61  78 SW9       29.81R
$$

             KEY
       WCI = WIND CHILL INDEX
       VSB = VISIBILITY
       HX  = HEAT INDEX
$$



USA.gov is the U.S. government's official web portal to all federal, state and local government web resources and services.